Location: Sungai Igah
(2.7333°N, 114.2500°E)
Time: 18:51:52
(UTC+00:00)

S3M - Pass Details

Date: 14 June 2021
Orbit: 949 x 1004 km, 83.0° (Epoch: 26 July)

Event Time Altitude Azimuth Distance (km) Brightness Sun altitude
Rises 20:44:12 0° 342° (NNW) 3,633 7.1 -21.5°
Reaches altitude 10° 20:46:50 10° 335° (NNW) 2,697 6.3 -20.9°
Maximum altitude 20:52:32 40° 267° (W) 1,406 4.4 -19.6°
Enters shadow 20:54:54 29° 223° (SW) 1,709 4.7 -19.1°
